FW4302 Weather Reports


time (UTC)temp
F
wind
direction
speed
knots
gust
knots
rain 1hr
in
rain 24hr
in
rain mn
in
humidity
%
barometer
mb
20260507154501 56 86 1.7 7.8 0.00 0.00 0.00 68 1014.3
20260507153101 55 93 4.3 7.8 0.00 0.00 0.00 68 1014.4
20260507151603 55 25 0.9 3.5 0.00 0.00 0.00 69 1014.7
20260507150054 54 151 2.6 7.8 0.00 0.00 0.00 71 1014.4
20260507144600 53 123 1.7 6.1 0.00 0.00 0.00 74 1014.0
20260507143058 52 122 0.9 6.1 0.00 0.00 0.00 76 1014.0
20260507141554 51 136 0.9 5.2 0.00 0.00 0.00 77 1013.7
20260507140043 47 75 0.9 1.7 0.00 0.00 0.00 90 1013.5
20260507134544 44 298 0.0 1.7 0.00 0.00 0.00 91 1013.5
20260507133107 43 297 0.9 2.6 0.00 0.00 0.00 91 1013.3
20260507131544 43 279 0.9 2.6 0.00 0.00 0.00 92 1013.2
20260507130045 42 279 0.9 2.6 0.00 0.00 0.00 92 1013.0
20260507124535 42 260 0.9 2.6 0.00 0.00 0.00 92 1012.9
20260507123039 42 260 0.9 2.6 0.00 0.00 0.00 92 1012.7
20260507121533 43 287 0.0 0.0 0.00 0.00 0.00 92 1012.4
20260507120033 43 287 0.0 2.6 0.00 0.00 0.00 91 1012.4
20260507114527 43 287 1.7 2.6 0.00 0.00 0.00 91 1012.1
20260507113024 44 287 0.9 1.7 0.00 0.00 0.00 90 1012.0
20260507111522 44 287 0.9 2.6 0.00 0.00 0.00 90 1011.9
20260507110020 45 287 0.9 2.6 0.00 0.00 0.00 90 1011.6
20260507104518 44 287 1.7 2.6 0.00 0.00 0.00 90 1011.4
20260507103014 45 298 0.9 1.7 0.00 0.00 0.00 89 1011.2
20260507101512 45 296 0.9 1.7 0.00 0.00 0.00 89 1011.2
20260507100010 46 296 0.9 2.6 0.00 0.00 0.00 88 1011.1
20260507094508 46 296 0.9 2.6 0.00 0.00 0.00 88 1010.8
20260507093005 47 296 0.9 2.6 0.00 0.00 0.00 87 1010.6
20260507091504 47 296 0.9 2.6 0.00 0.00 0.00 86 1010.4
20260507090106 48 296 1.7 2.6 0.00 0.00 0.00 86 1010.1
20260507084600 48 296 0.9 2.6 0.00 0.00 0.00 86 1010.0
20260507083055 49 296 1.7 2.6 0.00 0.00 0.00 85 1009.9
20260507081554 49 296 0.9 1.7 0.00 0.00 0.00 85 1009.7
20260507080051 49 296 0.9 2.6 0.00 0.00 0.00 84 1009.4
20260507074552 50 296 1.7 2.6 0.00 0.00 0.00 84 1009.3
20260507073052 50 296 1.7 2.6 0.00 0.00 0.00 83 1009.3
20260507071544 50 292 1.7 2.6 0.00 0.00 0.00 84 1009.2
20260507070050 51 321 0.9 2.6 0.00 0.00 0.00 84 1008.9
20260507064548 51 321 0.0 1.7 0.00 0.00 0.00 84 1008.7
20260507063039 53 321 0.9 2.6 0.00 0.00 0.00 81 1008.6
20260507061539 53 321 0.0 2.6 0.00 0.00 0.00 81 1008.6
20260507060044 54 321 0.9 3.5 0.00 0.00 0.00 80 1008.4
20260507054538 54 288 0.9 2.6 0.00 0.00 0.00 79 1008.4
20260507053037 56 288 1.7 2.6 0.00 0.00 0.00 76 1008.7
20260507051536 57 288 0.9 2.6 0.00 0.00 0.00 74 1008.7
20260507050037 59 295 0.0 0.0 0.00 0.00 0.00 70 1008.7
20260507044547 58 296 0.9 2.6 0.00 0.00 0.00 70 1008.7
20260507043034 61 74 0.0 1.7 0.00 0.00 0.00 65 1008.6
20260507041533 63 74 0.0 2.6 0.00 0.00 0.00 61 1008.5
20260507040041 63 29 0.0 3.5 0.00 0.00 0.00 61 1008.2
20260507034541 64 297 0.0 2.6 0.00 0.00 0.00 59 1008.3
20260507033045 65 255 0.0 4.3 0.00 0.00 0.00 57 1008.2
20260507031545 65 360 0.9 2.6 0.00 0.00 0.00 57 1008.2
20260507030032 67 25 0.0 2.6 0.00 0.00 0.00 55 1008.4
20260507024529 67 128 0.0 3.5 0.00 0.00 0.00 55 1008.3
20260507023028 68 298 0.0 3.5 0.00 0.00 0.00 52 1008.5
20260507021526 68 74 0.9 2.6 0.00 0.00 0.00 49 1008.6
20260507020026 70 136 0.0 8.7 0.00 0.00 0.00 49 1008.8
20260507014532 70 286 0.9 7.0 0.00 0.00 0.00 50 1008.7
20260507013033 71 261 0.0 3.5 0.00 0.00 0.00 51 1008.8
20260507011531 71 129 0.0 4.3 0.00 0.00 0.00 46 1009.0
20260507010022 72 26 0.0 5.2 0.00 0.00 0.00 45 1009.3
20260507004519 72 55 1.7 7.8 0.00 0.00 0.00 44 1009.4
20260507003019 73 345 0.9 3.5 0.00 0.00 0.00 45 1009.6
20260507001525 73 205 0.9 5.2 0.00 0.00 0.00 45 1009.4
20260507000019 74 65 0.9 7.8 0.00 0.00 0.00 46 1009.6
20260506234516 74 211 1.7 5.2 0.00 0.00 0.00 44 1009.6
20260506233015 74 321 2.6 7.0 0.00 0.00 0.00 44 1009.7
20260506231514 74 22 0.9 5.2 0.00 0.00 0.00 47 1009.7
20260506230012 74 265 2.6 10.4 0.00 0.00 0.00 46 1010.1
20260506224511 75 340 2.6 8.7 0.00 0.00 0.00 44 1010.2
20260506223015 74 312 3.5 11.3 0.00 0.00 0.00 43 1010.4
20260506221508 76 315 3.5 10.4 0.00 0.00 0.00 38 1010.6
20260506220008 76 21 3.5 10.4 0.00 0.00 0.00 39 1010.6
20260506214505 77 121 2.6 7.0 0.00 0.00 0.00 42 1010.6
20260506213002 75 151 2.6 7.0 0.00 0.00 0.00 44 1010.8
20260506211600 75 137 1.7 7.0 0.00 0.00 0.00 46 1010.8
20260506210058 74 294 3.5 9.6 0.00 0.00 0.00 44 1011.1
20260506204556 73 225 4.3 11.3 0.00 0.00 0.00 44 1011.4
20260506203053 73 153 3.5 8.7 0.00 0.00 0.00 45 1011.7
20260506201555 73 104 1.7 11.3 0.00 0.00 0.00 44 1011.7
20260506200049 72 132 2.6 11.3 0.00 0.00 0.00 44 1012.0
20260506194548 71 227 4.3 7.8 0.00 0.00 0.00 43 1012.2
20260506193045 70 167 4.3 9.6 0.00 0.00 0.00 42 1012.4
20260506191541 69 121 2.6 6.1 0.00 0.00 0.00 43 1012.7
20260506190042 68 139 3.5 7.0 0.00 0.00 0.00 44 1012.9
20260506184546 67 98 2.6 6.1 0.00 0.00 0.00 44 1013.1
20260506183036 66 167 3.5 6.1 0.00 0.00 0.00 44 1013.2
20260506181534 65 119 0.9 7.0 0.00 0.00 0.00 44 1013.2
20260506180035 65 171 1.7 6.1 0.00 0.00 0.00 44 1013.4
20260506174532 63 141 3.5 8.7 0.00 0.00 0.00 43 1013.5
20260506173035 62 137 1.7 8.7 0.00 0.00 0.00 44 1013.7
20260506171528 61 87 1.7 6.1 0.00 0.00 0.00 45 1014.0
20260506170025 60 146 1.7 3.5 0.00 0.00 0.00 46 1014.1
20260506164523 59 153 0.9 6.1 0.00 0.00 0.00 49 1014.3
20260506163026 58 129 2.6 6.1 0.00 0.00 0.00 48 1014.3
20260506161519 58 111 1.7 6.1 0.00 0.00 0.00 49 1014.3
20260506160021 57 113 0.9 4.3 0.00 0.00 0.00 47 1014.4